Welcome to the New NWS' Forecast!
Most changes are behind the scenes, but click here for differences you might notice.

Regional Weather Roundup (RWR)

Issued by Gray - Portland, ME (GYX)

                            
521 
ASUS41 KGYX 151705
RWRGYX
WEATHER ROUNDUP FOR MAINE AND NEW HAMPSHIRE
NATIONAL WEATHER SERVICE GRAY ME
100 PM EDT WED AUG 15 2018

MEZ002-005-006-010-012-015-018-020-021-024-026-027-029-151800-
MAINE
  
CITY           SKY/WX    TMP DP  RH WIND       PRES   REMARKS
PORTLAND       FAIR      79  70  74 VRB3      29.83F                  
SANFORD        FAIR      82  70  66 W6        29.83F                  
BAR HARBOR     CLOUDY    73  69  87 W3        29.84R                  
WISCASSET      CLOUDY    79  70  74 CALM      29.83F                  
ROCKLAND       PTSUNNY   77  70  79 W8        29.83S                  
FRYEBURG       FAIR      83  69  62 E3        29.83F                  
LEWISTONAUBURN FAIR      80  70  71 VRB3      29.82F                  
AUGUSTA        FAIR      81  68  64 VRB3      29.82F                  
WATERVILLE     FAIR      81  69  67 VRB6      29.79F                  
BANGOR         PTSUNNY   79  70  74 S8        29.81F                  
GREENVILLE       N/A     76  68  76 VRB3      29.82S                  
MILLINOCKET    LGT RAIN  72  68  87 CALM      29.80F                  
HOULTON        FAIR      80  70  71 SW8       29.75F                  
PRESQUE ISLE   CLOUDY    78  69  73 W8        29.76F                  
FRENCHVILLE    FAIR      81  66  60 SW7       29.74F                  
CARIBOU        FAIR      80  69  69 SW9       29.74F                  
$$

NHZ002-005-008-009-011-012-014-151800-
NEW HAMPSHIRE
  
CITY           SKY/WX    TMP DP  RH WIND       PRES   REMARKS
PORTSMOUTH     PTSUNNY   81  69  68 W5        29.82F                  
ROCHESTER      FAIR      80  70  71 CALM      29.83F                  
MANCHESTER     NOT AVBL                                               
CONCORD        FAIR      83  68  60 NW6       29.84F                  
LACONIA        PTSUNNY   82  68  62 W7        29.84F                  
PLYMOUTH       FAIR      82  67  60 W7        29.84F                  
BERLIN         FAIR      81  69  67 VRB3      29.87S                  
WHITEFIELD     PTSUNNY   78  68  71 VRB5      29.88S                  
JAFFREY        NOT AVBL                                               
LEBANON        FAIR      82  67  60 NE8       29.86S                  
MT WASHINGTON  FOG       55  55 100 NW29        N/A  VSB 0            
$$

VTZ005-007-008-151800-
VERMONT
  
CITY           SKY/WX    TMP DP  RH WIND       PRES   REMARKS
ST JOHNSBURY     N/A     78  68  71 MISG      29.85F                  
MONTPELIER     FAIR      79  68  69 NW5       29.93S                  
BURLINGTON     PTSUNNY   86  66  51 CALM      29.85S                  
$$

MAZ007-012-024-CTZ003-RIZ002-NYZ038-NYZ072-151800-
SOUTHERN NEW ENGLAND AND NY
  
CITY           SKY/WX    TMP DP  RH WIND       PRES   REMARKS
BOSTON         PTSUNNY   84  68  58 N9G17     29.84S                  
WORCESTER      FAIR      78  66  66 NW9       29.89S                  
NANTUCKET      FAIR      79  70  74 W14       29.85S                  
PROVIDENCE     PTSUNNY   84  68  58 W10       29.85F                  
HARTFORD       FAIR      85  67  54 NW8       29.87S                  
ALBANY         FAIR      84  67  56 NW5       29.89F                  
NEW YORK CITY  FAIR      86  65  49 NW10      29.90S                  
$$

ANZ081-ANZ082-ANZ150-NHZ014-MEZ023>029-151800-
COASTAL MARINE OBSERVATIONS
  
STATION/POSITION TIME  TEMP    WIND        PRES    WAVE
                       AIR SEA DIR/SP/G            HT/PER
                 (UTC) (F)     (DEG/KT/KT) (MB)    (FT/S)
MOUNT DESERT ROC 1700   68     170/ 10/ 10 1010.2F
MATINICUS ROCK   1600   68     180/ 10/ 10 1009.9F
ISLE OF SHOALS   1600   70     160/  3/  4 1010.0F
JEFFREYS LEDGE   1636      70                N/A     2/ 6
$$

.............KEY..............
   WCI - WIND CHILL
   TC  - TEMPERATURE IN CELSIUS
   VSB - VISIBILITY IN MILES
   HX  - HEAT INDEX
   FAIR- INDICATES FEW OR NO CLOUDS BELOW 12,000 FT, WITH NO 
         SIGNIFICANT WEATHER AND/OR OBSTRUCTIONS TO VISIBILITY.